ECMWFFLT2_sfc_temp_057.txt.gz
Temp
82 83 86 85 86 63 73 76 68 71 78 75 63 65 69 69 60 54 65 63 70 75 79 78 84 83 86 89 89 86 85 86 86 85 86 87 87 87 87 85 85 84 85 85 86 86 87 87 87 87 85 85 84 83 82 81 81 82 81 81 81 81 81
83 87 88 87 87 85 75 69 72 81 82 80 66 53 56 56 51 54 67 62 61 65 57 79 77 80 84 86 88 89 85 86 84 86 86 87 87 87 87 86 86 86 86 85 87 88 88 87 88 87 86 86 85 84 83 82 81 80 81 82 82 81 81
83 88 86 82 87 89 79 75 85 73 59 61 62 63 50 49 49 51 61 67 65 65 63 75 77 79 80 83 86 89 85 86 85 86 86 87 88 88 87 87 86 86 86 86 87 88 89 88 88 88 87 87 86 85 85 84 82 83 82 83 83 82 82
82 83 80 67 74 85 87 86 80 83 72 65 56 63 62 58 49 55 54 63 55 70 72 77 79 81 81 81 82 87 88 86 87 87 87 87 87 87 88 88 87 87 88 88 89 89 89 89 88 89 89 89 88 86 85 84 84 84 83 83 83 82 82
81 70 76 72 74 72 75 74 71 75 73 76 71 69 65 54 52 50 52 52 60 68 78 82 81 82 82 83 79 81 89 87 89 89 88 88 88 87 88 88 88 88 88 89 90 90 91 91 90 90 90 89 89 88 86 85 83 83 83 83 83 82 83
71 74 82 81 80 80 76 74 70 73 70 63 61 54 72 69 58 47 54 52 61 73 88 84 84 85 86 85 84 78 84 87 89 90 89 88 88 88 88 89 89 89 89 89 90 91 91 92 90 90 91 90 89 88 87 86 86 85 84 84 83 83 83
71 79 84 87 86 85 82 79 74 78 76 70 60 46 56 67 67 72 64 56 55 72 79 83 87 87 88 87 87 83 83 86 90 90 91 89 89 89 90 90 90 90 89 89 90 89 90 91 90 90 90 90 89 89 88 87 86 85 86 85 85 84 83
76 82 86 86 86 85 79 80 81 78 73 75 67 62 64 62 63 61 60 54 57 71 79 80 85 83 88 88 89 82 85 87 91 90 90 88 87 88 91 92 92 90 90 90 88 88 89 89 88 89 90 90 90 90 89 88 86 86 86 86 86 84 83
60 66 73 78 83 82 76 75 78 80 79 79 77 74 68 62 64 65 54 48 57 71 76 79 82 85 89 88 89 86 85 85 90 90 90 90 87 88 89 90 90 90 90 88 87 88 88 88 89 89 89 90 90 90 90 89 88 88 87 87 86 85 84
46 49 51 57 64 71 76 78 78 79 79 76 73 65 60 51 58 65 58 56 64 71 75 76 79 81 81 84 87 87 90 85 89 89 90 89 88 86 89 89 89 89 89 88 87 87 87 89 90 88 89 90 90 90 90 90 89 88 88 88 87 86 85
48 54 57 71 76 74 69 74 76 77 80 80 76 67 57 53 54 60 57 59 62 71 76 76 77 78 80 83 79 80 80 80 83 86 87 88 87 86 88 88 89 88 86 86 86 87 88 90 90 89 90 90 90 89 89 91 90 89 88 87 86 86 86
60 65 66 72 78 73 74 74 74 78 78 78 73 68 62 61 60 47 60 63 66 67 73 75 75 76 77 77 76 80 79 80 83 85 86 88 87 89 87 87 87 86 86 86 86 86 88 90 90 90 90 90 90 89 89 91 91 90 90 88 87 86 85
66 69 71 75 74 75 76 76 76 75 77 77 73 68 72 68 58 52 61 64 64 68 75 76 75 74 76 79 82 85 84 84 82 83 87 88 88 84 82 85 85 85 85 85 86 86 88 89 89 89 89 90 90 90 91 90 92 91 90 88 87 87 85
63 68 69 70 72 74 73 75 77 77 77 77 77 75 75 74 64 67 67 64 71 77 77 80 80 79 81 83 83 83 83 85 84 84 86 89 87 85 85 85 85 85 86 86 86 86 86 88 88 89 89 88 89 90 90 91 91 92 90 88 87 86 85
59 67 69 71 71 72 71 73 75 78 78 78 79 78 78 74 75 78 75 68 69 76 82 79 81 78 85 84 85 85 83 85 88 87 87 86 86 85 84 83 84 83 84 83 83 84 86 87 88 89 88 89 90 91 90 91 91 92 91 88 87 86 85
54 66 66 68 71 71 69 69 71 70 71 73 76 75 78 71 65 72 70 64 66 72 78 79 79 79 80 79 78 79 80 84 82 83 86 85 84 85 85 85 84 83 84 84 84 85 87 88 88 88 87 89 89 90 90 90 92 93 91 89 87 86 86
47 59 65 67 68 66 61 63 69 73 72 73 80 81 80 77 77 72 60 64 68 74 79 79 79 80 78 77 77 77 78 77 82 83 83 82 85 82 81 81 82 85 86 86 86 88 89 89 89 90 88 89 88 90 89 90 91 92 90 89 87 86 87
46 56 60 64 57 45 49 70 76 74 72 73 75 77 79 81 79 71 71 71 74 76 77 78 76 78 78 79 78 79 78 77 79 83 82 85 84 85 84 85 86 84 83 84 86 87 86 87 90 89 88 89 89 90 90 89 89 89 89 88 87 86 86
45 52 54 51 44 48 65 73 76 77 78 76 74 76 81 83 79 80 77 76 75 76 77 76 77 78 80 83 83 83 82 80 80 80 82 81 84 84 82 81 81 79 79 80 81 81 84 86 85 85 85 87 86 86 86 87 88 87 88 88 85 85 86
51 48 47 40 45 62 71 75 78 81 79 75 74 73 69 69 76 78 78 80 76 77 79 80 79 80 83 84 82 82 84 84 83 82 81 81 83 81 81 80 80 81 84 83 84 83 84 88 87 88 87 88 88 86 85 86 86 87 86 86 85 84 85
43 46 46 50 60 63 67 69 72 73 67 68 65 58 62 70 70 73 76 79 80 80 80 81 81 82 83 78 77 83 84 83 86 85 83 84 83 83 83 83 81 81 83 83 84 83 83 83 84 87 88 89 87 85 84 84 84 84 84 84 85 83 84
48 43 43 48 50 47 53 63 73 80 82 79 76 68 62 69 70 75 76 76 77 79 80 80 79 81 74 68 71 81 84 85 85 85 86 85 84 83 83 82 82 81 80 81 83 83 81 80 79 80 84 87 83 83 83 82 82 82 84 84 84 83 84
46 44 42 44 46 51 55 61 66 71 79 82 77 66 55 65 68 73 74 72 73 74 74 76 78 72 64 63 70 79 82 83 84 82 83 84 84 83 82 82 81 80 80 81 81 80 80 79 79 80 81 83 84 81 82 84 84 83 83 84 85 84 84
45 45 41 41 53 47 55 65 66 69 73 80 68 48 49 63 66 72 72 71 71 71 72 73 70 67 63 64 71 81 83 84 83 81 80 80 82 83 83 83 82 80 81 79 79 79 80 79 80 81 81 82 82 82 81 83 85 85 85 85 84 84 84
48 47 44 48 53 58 63 64 67 68 74 73 53 42 53 63 66 71 71 71 71 71 71 71 67 69 72 73 77 81 82 82 81 82 83 82 82 81 82 81 82 80 80 79 78 78 78 79 81 81 81 81 79 80 81 80 82 86 86 84 83 84 84
45 47 43 45 52 58 63 67 68 70 66 48 45 55 64 66 67 70 71 70 71 71 70 70 70 72 76 78 79 79 80 80 79 80 80 81 82 84 82 83 82 80 80 78 78 80 81 84 83 81 81 80 79 78 78 79 81 84 82 83 83 83 83
50 49 43 40 34 54 67 67 64 66 52 52 60 61 67 70 68 68 68 68 69 71 69 72 71 73 74 75 76 76 77 78 78 78 78 77 78 79 79 79 81 82 77 77 78 80 83 83 82 82 81 79 78 79 78 79 82 83 84 84 83 83 83
43 44 40 38 50 56 66 63 54 58 61 64 64 64 63 68 68 67 66 67 69 71 70 70 71 72 72 72 73 74 74 76 77 77 77 77 77 79 80 80 79 80 77 77 78 78 80 79 80 80 80 78 79 79 78 80 81 83 83 83 83 83 82
48 45 49 54 57 62 67 63 63 68 69 70 69 68 67 65 66 68 67 66 70 71 70 70 70 70 71 71 72 71 72 74 75 75 75 76 76 77 76 77 78 78 77 76 77 77 77 77 78 78 79 78 78 77 78 80 80 82 82 82 82 82 82
57 59 59 60 60 61 64 68 70 68 69 69 69 67 64 65 67 68 66 68 69 70 70 68 69 70 70 70 70 71 72 72 73 74 74 75 76 76 76 75 76 76 77 76 74 74 75 77 77 78 78 78 77 77 79 80 80 81 81 81 81 81 82
49 43 59 59 59 61 64 64 69 70 72 69 68 64 64 66 68 69 69 69 69 70 70 68 67 69 70 69 69 69 70 70 71 72 72 72 73 73 73 73 75 73 74 74 73 73 73 75 76 78 78 78 78 78 79 81 82 80 79 80 80 80 81
48 49 56 59 61 62 64 64 62 64 63 67 68 67 67 67 68 69 69 70 69 70 68 68 67 68 70 68 67 68 68 69 70 71 71 71 72 72 73 73 74 72 73 73 73 73 72 73 75 75 75 76 77 78 79 80 80 80 79 79 79 79 81
52 56 58 60 61 61 63 65 66 64 62 63 65 66 65 64 65 66 68 69 68 69 68 68 68 67 67 68 68 68 68 68 69 70 70 71 71 72 72 73 74 71 72 73 73 72 72 73 74 74 75 76 77 78 78 79 78 78 78 79 78 79 80
45 47 52 57 50 49 57 61 62 63 63 63 64 65 66 64 61 63 65 66 68 68 69 68 68 66 66 67 67 67 68 68 68 69 70 71 71 72 73 73 72 72 73 73 72 71 72 73 73 74 74 75 76 78 78 78 78 77 77 77 76 76 77
45 53 56 58 57 56 58 60 62 63 63 63 62 62 63 64 65 64 64 63 63 64 66 68 68 66 66 67 68 68 68 67 69 69 70 70 71 72 73 72 71 71 72 75 74 72 72 73 73 73 73 74 75 77 78 77 78 77 77 75 75 75 76
53 56 56 57 55 53 58 61 62 61 62 62 61 62 63 63 63 64 64 63 62 62 64 67 68 67 67 68 68 67 67 68 68 69 70 71 71 72 73 72 72 71 71 72 72 72 72 73 73 73 73 74 74 76 77 77 77 76 76 75 74 74 75
50 56 57 57 57 57 60 61 62 62 63 63 60 60 62 62 63 65 63 62 63 63 62 63 67 67 67 67 67 66 67 69 70 71 72 72 73 72 72 72 71 72 71 72 73 73 73 73 73 74 74 75 74 75 76 77 76 75 75 76 75 75 74

ECMWFFLT2_sfc_temp_060.txt.gz
Temp
76 76 79 79 79 59 68 70 63 67 68 69 56 55 57 55 50 53 48 59 62 66 70 76 74 74 77 76 81 81 81 82 81 81 82 82 83 83 83 83 83 82 83 84 85 84 85 84 83 83 82 82 81 81 80 80 80 80 79 79 79 79 79
77 82 80 81 81 72 68 64 68 72 76 71 62 46 48 51 44 46 56 57 51 58 54 66 75 71 76 74 77 80 81 82 80 81 82 82 83 83 83 83 83 83 84 84 85 86 86 85 84 84 83 83 83 82 81 80 80 79 80 80 80 79 79
77 81 79 75 81 81 75 72 77 71 54 59 56 53 47 44 45 42 50 58 55 54 57 61 69 74 74 74 75 78 79 80 80 81 82 83 84 84 83 83 82 83 83 84 84 85 86 86 85 85 84 84 83 83 82 82 81 81 81 82 81 80 80
74 76 74 61 69 79 80 78 76 72 65 61 54 60 49 53 40 49 46 53 52 61 62 68 73 75 77 77 73 77 79 80 81 82 83 83 83 83 83 83 83 83 84 85 85 85 86 86 85 85 85 85 84 83 82 82 82 82 81 81 81 80 80
70 63 68 67 70 67 68 69 67 71 68 66 64 62 58 47 42 44 45 46 51 59 72 77 77 78 79 79 75 76 79 81 83 83 83 83 83 83 83 83 83 83 84 85 85 86 87 87 86 86 86 85 84 84 83 83 81 81 81 81 81 80 80
56 62 74 76 75 74 71 68 65 70 65 57 59 50 65 58 52 39 45 48 50 68 82 79 79 81 83 82 80 77 80 82 83 84 84 84 84 84 84 84 85 85 84 84 85 86 86 86 86 86 86 86 85 84 84 83 83 82 82 81 81 81 81
57 67 74 79 81 79 76 73 67 73 69 63 58 47 52 62 59 56 52 48 53 62 75 79 81 83 84 85 83 78 80 82 84 85 86 85 85 85 85 85 86 85 85 84 85 84 85 85 85 86 86 86 85 85 84 84 83 82 83 82 82 81 81
62 69 75 75 78 79 74 73 71 71 69 69 67 60 53 59 58 56 53 49 53 63 66 73 80 83 85 86 85 79 81 83 85 85 85 85 84 85 86 87 87 86 85 84 83 83 83 84 84 85 86 86 86 85 85 84 83 83 83 83 83 82 81
50 58 63 66 73 76 72 71 73 74 75 74 65 63 57 59 58 61 50 45 57 57 66 71 71 77 82 82 79 81 80 83 85 85 85 85 84 84 85 85 84 84 84 83 82 83 82 83 85 85 85 86 86 85 85 85 84 84 84 84 83 82 81
37 42 43 44 52 62 72 74 74 73 73 69 64 59 55 49 52 57 53 47 57 61 67 69 72 76 78 79 79 82 84 83 85 85 85 84 83 82 84 84 83 83 83 83 82 82 82 84 85 84 85 86 86 86 86 86 85 84 84 84 84 82 82
40 44 47 57 60 59 58 70 72 72 73 73 70 57 50 53 47 56 57 60 59 63 68 67 72 72 75 75 75 78 80 83 85 84 84 84 83 82 83 83 84 83 81 81 82 82 83 85 85 85 86 86 86 85 85 86 86 85 84 84 83 83 82
49 52 52 58 60 56 60 62 70 73 72 70 68 62 59 53 54 48 55 58 63 62 62 65 69 68 69 70 72 76 80 82 84 84 83 85 84 84 84 84 83 81 81 81 81 82 83 85 85 85 86 87 86 86 85 86 87 86 86 84 83 83 82
49 52 54 58 60 63 65 66 70 71 72 70 66 63 64 58 58 54 58 57 59 63 67 69 68 70 74 75 74 79 81 83 83 83 83 84 84 84 83 83 82 82 81 81 81 82 83 85 85 85 86 86 86 86 87 86 87 86 86 84 83 83 82
47 51 56 61 62 64 65 66 70 74 73 72 71 68 65 66 57 60 62 56 64 69 72 71 69 67 72 73 73 74 78 81 82 82 82 84 85 84 83 83 83 82 82 82 82 82 82 84 84 85 85 85 86 86 86 87 87 87 86 84 83 82 82
45 52 59 60 60 61 61 65 66 74 74 74 73 71 69 65 64 65 63 59 62 68 67 70 71 69 72 74 73 77 79 81 82 83 83 84 84 84 84 83 82 82 82 82 82 82 82 83 84 85 85 86 87 88 87 87 86 87 86 84 83 82 82
41 53 54 54 58 60 61 60 62 67 71 69 72 69 67 63 61 62 60 57 59 64 70 71 72 71 72 71 70 71 74 81 82 82 83 83 83 84 84 83 82 81 82 81 82 83 84 85 85 86 85 86 86 86 87 87 88 88 86 85 83 82 83
38 50 52 51 53 54 53 57 62 64 63 64 69 72 70 67 65 61 55 58 64 68 71 73 70 73 71 71 71 72 72 73 81 82 82 82 83 83 83 82 81 83 84 83 83 84 86 86 87 87 87 86 85 86 86 86 87 87 85 85 84 83 83
38 47 49 50 48 41 45 60 64 63 63 62 58 58 60 62 65 61 64 66 64 68 74 73 70 70 70 70 69 71 72 73 74 76 76 79 82 82 83 84 84 84 83 83 83 84 84 86 88 88 87 87 87 87 87 86 86 86 85 84 84 83 83
37 44 45 45 41 42 57 64 65 66 67 65 60 59 61 61 64 64 66 68 70 71 74 73 72 72 73 75 74 75 75 74 74 73 74 74 75 76 76 76 78 77 78 79 80 81 84 86 85 85 85 87 86 86 86 85 86 85 85 84 83 83 83
43 40 37 38 39 54 61 63 64 64 66 64 63 58 60 62 62 64 62 67 70 70 73 74 74 74 75 76 76 76 77 77 76 76 75 75 76 75 75 75 75 77 79 79 81 80 81 84 83 85 85 86 86 85 85 85 85 85 85 84 83 83 83
35 40 37 41 51 55 56 54 57 58 54 56 56 50 55 61 62 64 63 64 68 73 73 74 74 75 75 72 72 78 78 77 79 78 77 77 77 77 77 78 76 76 78 78 79 79 80 81 82 83 85 85 86 84 84 85 84 84 84 83 83 83 83
43 38 36 37 40 36 43 52 60 64 65 65 64 59 54 62 63 65 65 64 64 68 71 71 72 75 69 64 66 74 78 79 79 79 79 79 78 78 78 78 78 77 78 79 79 78 77 76 76 76 79 82 82 82 83 83 83 83 83 84 84 83 83
42 38 34 34 34 41 48 49 57 62 65 64 65 58 50 60 63 65 65 65 65 66 67 67 72 68 61 59 65 72 76 77 78 77 78 78 78 78 78 78 77 77 77 78 79 78 77 77 76 76 76 77 79 79 80 81 82 83 83 84 84 83 83
41 40 37 31 39 37 47 53 56 60 64 65 61 48 47 60 64 65 65 64 65 65 66 69 67 65 60 60 66 74 76 77 77 76 75 76 77 77 78 78 77 76 77 78 77 77 77 76 77 77 76 77 77 76 76 77 79 81 83 84 84 84 84
42 42 39 41 44 49 53 54 57 60 65 63 50 41 50 61 64 65 65 65 65 66 65 66 62 64 67 68 73 75 76 75 75 76 77 76 76 76 77 77 78 76 76 76 75 75 75 76 77 76 76 75 74 76 75 74 77 79 79 79 80 81 81
39 40 38 40 43 49 54 56 58 63 61 46 44 54 61 64 64 66 66 64 65 66 65 65 65 66 70 71 72 73 73 73 73 74 75 76 76 77 76 78 77 75 75 74 75 75 76 77 77 76 75 74 75 74 74 74 75 77 78 80 79 79 80
44 43 40 36 31 45 55 55 57 61 50 49 57 59 61 67 64 64 64 64 64 65 65 67 66 67 68 69 69 70 71 71 71 72 72 72 73 73 74 74 76 76 73 72 73 74 76 77 77 76 75 75 73 75 73 75 76 77 77 79 79 79 79
37 39 37 36 47 50 55 52 47 53 56 58 59 59 56 64 64 63 62 63 64 65 64 65 66 66 66 67 67 68 69 70 70 71 71 72 73 73 75 75 74 74 72 72 72 73 74 75 75 75 75 74 76 74 72 76 76 77 77 78 79 79 79
43 40 45 53 55 55 57 57 55 58 61 61 59 59 57 58 61 65 62 62 64 65 65 64 65 65 65 65 67 66 67 68 68 68 69 70 70 71 71 73 74 73 72 71 71 72 72 73 74 74 74 74 75 74 74 76 76 76 76 77 78 79 79
53 55 54 57 59 60 60 59 60 59 60 61 60 58 57 57 59 63 62 63 63 64 65 63 63 64 64 65 65 66 67 67 68 68 69 69 70 70 70 71 72 72 72 72 71 71 72 72 73 74 74 73 73 73 75 76 77 76 76 77 77 78 78
45 38 52 54 55 59 59 57 58 60 61 60 60 59 57 60 60 59 63 63 63 64 64 62 62 63 64 64 64 64 64 65 66 66 67 67 68 68 68 70 72 70 71 70 70 71 71 71 72 74 73 74 73 74 75 76 77 76 76 77 77 77 77
46 46 52 54 57 58 60 57 54 55 56 59 60 60 60 61 64 62 60 63 63 63 62 62 62 62 64 63 62 63 63 64 64 65 66 66 67 68 69 70 71 70 70 69 69 69 70 70 70 72 72 73 73 74 75 76 75 75 76 76 76 76 77
49 54 53 53 56 56 57 58 59 58 58 56 59 61 61 60 61 62 62 63 62 62 61 62 62 61 62 62 62 63 63 63 63 64 65 66 66 67 68 69 69 69 69 69 68 68 68 69 69 70 71 72 74 74 75 75 74 74 74 75 74 76 76
41 44 46 50 44 44 51 54 56 58 58 58 57 58 59 61 59 61 61 62 62 63 63 61 61 60 60 61 61 62 62 63 62 63 64 65 66 67 68 70 68 69 70 69 68 67 68 69 69 69 70 71 73 75 75 75 74 73 72 72 72 72 73
39 48 50 51 50 50 52 53 55 57 59 59 58 56 56 58 61 61 61 60 60 60 61 62 61 60 59 60 61 62 62 62 63 64 64 65 66 67 68 68 69 68 68 70 68 68 68 69 69 69 69 70 71 73 73 74 73 72 72 72 71 71 73
47 50 51 51 49 48 51 54 55 56 58 58 59 59 59 59 59 60 61 61 59 59 60 62 62 60 61 61 62 61 61 63 63 64 65 66 66 67 68 68 68 68 67 67 67 68 68 69 68 68 69 70 70 72 73 73 73 72 72 72 71 71 72
43 50 50 51 51 52 54 55 56 56 58 59 58 58 59 58 59 61 59 60 61 60 59 59 62 62 61 61 61 61 61 62 64 66 67 67 68 67 67 68 68 68 67 68 68 67 68 67 68 69 68 69 70 71 73 74 74 72 71 71 72 72 73

ECMWFFLT2_sfc_temp_063.txt.gz
Temp
70 73 74 73 74 55 63 65 58 63 65 65 54 51 52 51 47 53 48 53 55 57 67 71 67 70 73 78 80 81 81 81 80 79 80 81 81 82 82 81 82 82 82 82 83 83 83 83 82 81 80 81 80 79 79 78 78 78 78 78 78 78 78
72 77 74 75 76 67 62 58 64 67 70 67 59 47 47 46 44 44 48 53 52 55 54 62 68 67 69 73 77 81 81 81 79 80 80 81 81 82 82 82 82 83 83 82 83 84 84 83 83 82 81 81 81 80 80 79 78 77 78 79 78 78 78
65 73 72 69 75 78 71 66 73 66 51 54 55 50 45 41 41 40 46 49 52 51 55 58 67 68 65 69 74 77 79 80 79 80 80 81 82 82 81 81 81 81 82 82 83 84 85 84 83 83 82 82 81 81 81 81 79 79 79 80 79 79 79
60 64 67 58 63 72 76 72 70 67 60 59 53 56 46 49 38 44 43 48 54 57 61 63 70 70 69 68 69 74 78 79 80 80 81 81 81 81 82 82 82 82 83 84 84 84 84 84 83 83 83 83 82 82 81 80 81 80 80 79 79 78 79
60 52 61 62 65 62 63 65 63 64 63 61 63 55 53 51 35 37 39 45 48 52 59 67 70 70 71 70 70 73 77 79 81 81 81 81 81 81 82 82 82 82 83 84 84 85 85 85 84 84 84 83 82 82 81 81 80 80 79 80 79 79 79
45 52 62 65 65 67 66 64 63 65 61 54 54 50 56 49 50 38 39 46 48 58 68 72 72 73 74 72 73 73 76 79 80 81 82 82 81 82 82 83 83 83 83 83 84 85 85 84 84 83 84 83 83 82 82 81 81 81 80 79 79 79 79
46 54 61 64 63 62 63 67 65 68 64 57 54 44 48 56 55 51 47 46 56 63 67 72 74 77 80 76 74 75 77 79 81 82 83 83 83 83 83 83 84 84 83 83 84 83 83 84 83 83 83 83 83 82 82 82 81 81 81 81 80 79 79
51 55 59 61 62 63 62 65 67 67 64 66 65 60 51 56 51 55 50 48 54 58 59 67 74 76 78 77 75 76 78 79 81 82 82 81 81 82 84 84 85 84 83 83 82 81 82 82 82 82 83 83 83 83 83 82 81 81 82 81 81 80 79
46 57 59 59 61 63 58 56 62 68 71 70 61 55 52 58 54 58 48 47 59 61 60 62 64 68 72 74 75 77 77 78 80 81 81 82 81 81 82 82 82 82 82 81 80 81 81 81 83 82 83 83 83 83 83 83 82 83 82 82 81 80 80
33 39 40 38 37 44 51 55 58 63 68 66 59 56 52 51 50 54 51 55 59 61 64 69 67 66 68 71 73 77 80 79 80 81 81 80 80 80 81 81 81 80 81 81 80 80 81 82 83 82 82 83 83 83 83 84 83 82 82 83 82 81 80
33 36 38 46 50 48 44 50 53 54 57 66 67 53 48 52 44 53 57 60 61 67 72 73 75 65 67 70 68 74 76 78 80 80 80 80 80 79 80 80 81 80 79 79 79 80 81 82 83 83 83 83 83 82 82 84 84 83 82 82 81 81 80
42 45 45 49 50 44 46 46 48 54 57 59 64 61 59 53 50 49 52 52 62 68 72 73 73 67 64 64 67 73 76 77 79 80 79 80 80 80 80 80 79 79 79 79 79 79 81 82 82 83 83 84 83 83 82 83 84 83 83 82 81 80 80
46 48 48 49 49 49 49 51 52 54 59 59 60 64 59 58 59 56 52 51 58 68 74 77 72 66 70 71 70 75 79 79 79 78 78 79 79 79 79 79 79 79 79 78 78 79 80 82 81 82 83 83 83 83 83 83 84 83 83 82 81 80 80
43 45 46 49 48 49 53 54 56 57 58 59 61 64 59 65 58 60 58 54 62 71 74 75 74 66 67 67 69 71 73 76 77 78 77 79 79 79 79 79 80 80 80 79 79 79 79 80 81 82 82 82 83 83 83 84 83 84 83 81 80 80 79
40 44 48 51 51 51 49 54 56 55 57 60 63 65 61 62 61 61 59 57 60 67 62 62 61 61 65 66 68 73 76 76 77 78 78 79 79 79 80 79 80 80 80 80 79 79 79 80 81 82 82 82 83 84 84 84 83 84 83 81 80 80 79
36 44 47 47 49 49 49 52 52 53 53 57 61 60 57 58 58 58 58 53 59 59 61 64 63 63 62 64 65 69 71 76 77 77 78 79 78 79 80 80 81 80 80 78 78 78 80 81 81 82 81 82 83 83 83 84 84 85 83 82 80 80 80
32 42 45 45 45 47 45 47 50 52 54 56 58 57 57 55 55 56 56 58 59 56 62 65 63 64 64 64 62 62 68 69 76 78 79 79 80 80 79 80 80 80 80 79 79 80 81 82 82 83 83 83 82 83 83 83 84 84 82 82 81 80 80
32 41 43 44 41 38 39 52 57 54 54 54 52 51 53 57 57 52 55 59 60 60 62 63 62 64 64 64 66 66 64 65 69 76 77 80 81 81 81 82 81 81 81 80 81 81 81 82 84 84 84 84 84 84 84 83 83 82 82 81 81 80 80
30 39 41 39 38 39 52 58 58 57 58 58 55 55 57 57 58 58 58 59 60 62 64 64 65 67 68 70 70 70 70 67 69 69 70 71 74 77 78 79 80 79 79 79 79 79 81 83 83 83 83 84 82 82 82 82 82 82 82 81 81 81 80
37 36 34 34 40 48 55 57 57 58 59 57 56 55 57 58 58 58 56 59 63 65 65 67 68 69 70 71 71 72 73 72 70 70 70 70 73 72 72 74 73 75 76 77 80 80 81 82 82 84 83 84 84 83 82 82 82 82 81 81 81 80 80
29 35 35 36 45 48 50 49 50 51 48 50 49 46 54 58 60 59 57 59 61 63 66 66 69 69 71 67 68 73 73 73 74 73 72 73 72 72 72 74 73 73 75 77 77 78 78 80 80 82 82 83 83 81 81 82 81 81 81 80 80 80 81
39 32 32 32 37 37 41 48 53 56 58 57 57 53 53 60 62 62 60 59 59 61 63 64 64 67 66 61 63 70 73 74 74 75 75 75 75 75 74 74 75 75 75 76 77 78 77 77 78 80 81 82 81 80 80 80 81 80 81 81 81 81 81
36 34 29 30 31 38 43 46 51 56 58 57 57 53 50 59 61 63 61 60 60 61 62 63 65 65 60 59 63 69 71 72 73 72 73 74 74 74 75 75 75 75 75 76 76 75 75 74 73 76 81 81 81 80 80 80 81 81 81 82 82 82 82
35 34 32 28 36 32 43 49 54 56 58 58 53 44 45 57 60 62 62 61 61 62 63 65 66 64 59 60 64 70 71 72 72 71 71 71 73 73 74 74 74 75 76 76 74 73 73 72 73 75 77 80 81 80 80 81 81 82 82 83 84 84 84
36 37 36 37 39 46 50 51 54 57 59 57 47 40 48 57 59 62 62 61 63 64 63 64 60 62 65 66 69 70 70 70 70 72 73 72 73 72 73 73 76 74 74 73 72 72 72 73 74 74 76 77 76 76 76 76 79 81 81 81 82 82 82
32 35 34 35 39 46 52 53 55 58 56 44 42 51 56 56 57 62 62 61 62 63 63 63 63 65 67 68 68 68 68 67 68 70 71 72 72 73 74 75 74 73 73 72 73 73 73 74 74 74 75 75 73 73 72 73 73 74 75 78 79 78 79
38 38 36 35 30 44 53 53 54 54 46 46 53 55 56 57 58 59 60 60 60 62 62 64 65 65 66 66 66 66 67 67 66 67 67 68 69 70 70 71 73 73 71 71 71 72 73 74 74 74 75 74 73 72 72 72 73 73 74 74 76 78 79
34 36 34 33 42 47 54 52 45 50 52 54 55 55 52 56 58 57 59 59 59 62 62 62 63 64 64 64 65 65 65 66 67 67 67 67 68 70 71 71 71 72 70 70 71 71 72 72 72 73 74 73 74 72 71 72 72 73 73 73 74 76 77
41 39 43 47 50 52 53 53 53 54 56 57 56 55 54 53 55 59 58 58 61 61 62 62 62 61 62 62 64 63 63 65 65 65 66 66 67 67 68 70 71 71 70 69 70 70 70 71 71 71 72 73 73 72 71 73 73 74 73 73 73 74 75
50 52 51 53 52 52 52 54 54 54 56 57 56 54 52 54 55 57 57 60 61 62 61 61 61 60 61 61 62 62 63 64 64 65 66 66 67 67 68 69 70 70 70 70 70 69 69 69 71 71 71 72 71 70 71 73 73 73 74 72 72 73 74
41 36 49 48 48 52 53 52 54 55 54 54 55 55 53 54 57 57 59 60 62 62 61 60 59 60 61 60 60 61 61 62 62 63 63 64 65 65 66 68 70 68 69 69 69 69 68 68 69 70 70 70 70 70 72 73 73 73 74 74 74 74 73
40 41 47 49 51 54 54 51 49 50 52 54 55 54 56 56 57 58 58 61 62 63 61 60 58 59 60 60 60 60 60 60 61 61 62 63 64 65 66 67 68 67 67 66 67 68 67 66 67 68 69 69 70 70 71 72 72 73 73 73 73 72 72
42 47 50 48 50 52 53 53 53 52 52 51 53 55 55 57 56 57 60 62 61 62 61 60 59 58 58 59 59 60 60 60 60 61 62 62 63 64 65 66 67 65 66 66 65 66 66 66 67 67 67 68 69 70 71 71 72 72 73 73 71 71 72
35 38 43 45 38 39 48 51 52 52 53 53 53 54 55 56 55 56 57 58 60 61 62 60 59 57 57 58 58 59 59 59 59 61 61 62 62 63 65 65 65 66 67 66 65 65 65 65 67 67 67 68 68 70 70 70 71 72 71 70 69 69 71
35 43 45 46 45 45 46 49 52 52 53 52 51 51 53 54 56 57 56 54 56 57 60 60 58 57 57 57 58 59 59 59 60 60 61 61 62 63 64 64 64 65 65 67 66 66 64 65 66 66 67 67 68 70 70 69 70 70 70 70 69 69 70
43 46 46 47 45 43 47 50 51 51 52 52 52 53 54 55 56 57 56 55 55 55 58 59 59 58 58 58 58 58 59 59 60 62 62 61 61 63 63 63 63 64 65 64 66 66 65 66 65 66 66 67 67 69 70 70 69 69 69 69 68 68 69
41 47 48 48 47 48 49 50 50 51 53 54 51 51 53 55 56 58 56 56 57 57 56 56 58 59 58 58 58 58 58 59 60 63 64 64 64 64 63 64 65 65 65 64 63 64 65 66 67 66 66 67 67 68 69 70 68 69 69 69 68 68 69

ECMWFFLT2_sfc_temp_069.txt.gz
Temp
67 67 67 71 77 57 68 69 61 65 75 70 61 61 62 61 59 54 66 63 68 75 78 82 84 82 82 85 87 88 87 88 86 86 87 87 88 87 87 86 86 85 86 85 86 86 86 86 86 85 84 84 83 83 83 82 82 82 82 81 82 82 82
67 69 68 68 72 77 70 61 68 76 78 74 64 53 57 55 51 55 62 60 63 64 60 80 81 80 82 82 84 87 87 87 85 86 87 87 88 88 88 87 87 87 86 86 87 88 88 87 87 86 84 85 85 84 84 82 82 81 82 82 83 82 82
65 69 71 70 74 77 72 69 80 65 56 55 62 59 48 49 48 53 59 63 64 67 66 74 76 79 81 82 82 84 86 86 85 87 87 87 88 88 87 88 87 86 87 87 86 87 89 88 87 87 86 86 86 86 86 86 83 84 84 85 84 83 83
62 65 68 59 66 74 77 79 72 77 71 62 57 59 60 58 51 51 54 60 57 70 72 77 77 80 82 85 84 83 86 86 86 87 88 88 87 87 87 88 88 88 88 88 89 89 89 89 88 88 88 88 88 87 86 86 86 85 84 84 83 83 84
62 58 64 63 67 65 66 66 66 69 68 73 71 68 61 57 53 53 53 52 60 71 78 79 80 81 83 85 84 83 86 88 89 88 88 88 87 87 88 89 89 89 88 90 90 90 90 91 90 89 89 88 88 89 87 87 85 85 85 85 85 83 84
57 61 64 62 61 61 61 64 65 68 64 60 55 53 68 64 58 50 53 51 64 76 81 81 82 85 86 86 86 86 87 90 88 88 89 88 87 87 88 90 91 90 89 89 91 90 91 91 90 90 90 90 89 88 88 88 88 87 86 86 84 83 84
55 62 64 66 64 63 63 63 63 64 66 68 60 49 57 64 64 66 62 57 60 79 79 78 83 87 89 88 88 87 89 90 91 89 91 89 88 88 90 90 91 91 90 89 90 88 88 89 88 89 89 89 89 89 89 88 87 87 88 87 87 84 84
58 63 64 62 64 64 60 60 61 62 60 58 58 60 63 60 62 58 59 53 62 78 80 79 81 81 83 83 84 84 90 92 91 90 90 88 87 87 90 90 92 91 90 89 87 86 86 87 87 88 88 88 89 89 89 89 88 88 88 88 87 85 84
52 57 59 60 63 63 57 56 58 58 59 60 61 61 62 57 62 63 58 51 61 76 78 81 82 80 81 84 87 85 83 85 88 89 88 88 86 86 88 88 89 89 89 87 85 85 84 85 88 87 87 88 89 88 89 89 89 89 89 88 87 86 86
38 38 41 47 51 53 55 55 55 57 56 56 58 57 59 52 61 63 60 60 69 77 75 79 82 84 81 83 85 85 85 84 85 85 86 85 85 84 85 86 87 87 86 86 85 84 84 87 88 86 85 87 89 88 88 90 89 89 88 89 88 87 87
45 45 43 47 50 52 49 53 55 55 57 57 56 55 54 56 60 59 64 66 68 72 75 75 81 82 82 84 84 83 84 84 84 82 83 85 84 84 86 85 86 85 84 84 84 84 86 88 89 88 88 87 88 86 87 89 89 89 87 87 86 86 87
47 51 49 52 52 49 52 51 52 56 55 55 53 53 55 56 55 53 65 66 66 70 76 78 80 83 81 81 83 86 85 84 86 86 82 83 86 86 85 85 84 84 83 84 84 84 86 88 88 88 89 88 87 86 87 88 89 89 88 87 86 85 85
51 52 52 53 51 51 52 52 53 52 55 55 52 53 56 56 53 54 60 63 64 71 77 81 81 82 83 88 87 85 84 85 85 83 84 86 88 87 86 83 83 83 84 83 83 84 85 87 87 87 88 88 87 86 87 87 89 88 87 86 85 85 84
48 50 50 52 51 51 52 52 53 55 55 55 56 56 59 58 55 57 60 62 63 69 74 75 77 77 78 80 80 81 82 83 80 81 82 86 88 89 88 85 85 84 84 84 83 83 83 85 85 88 87 86 86 86 87 88 87 88 87 85 84 84 83
45 49 51 52 52 52 49 53 55 56 57 57 58 59 60 60 59 61 61 60 60 70 70 70 74 75 75 76 78 78 75 76 78 79 82 84 86 89 89 87 86 85 85 85 84 83 83 84 85 86 85 86 87 89 87 88 86 88 88 84 84 83 83
42 50 50 51 52 52 51 51 53 55 56 54 56 56 58 56 56 59 60 58 62 68 69 71 73 73 72 72 72 74 74 76 76 76 78 80 82 85 88 89 88 85 86 85 84 84 85 86 86 86 84 87 87 88 87 87 89 89 87 86 84 83 84
39 49 48 49 50 51 49 50 55 57 58 58 59 59 59 57 58 57 59 64 62 63 68 68 71 72 71 71 71 71 73 73 75 75 76 78 81 84 84 86 86 88 88 87 84 86 87 87 87 88 87 88 85 87 85 87 88 88 86 86 84 83 84
40 45 47 49 47 39 44 58 64 63 58 58 56 55 55 57 58 56 58 59 63 65 65 65 68 70 69 70 73 74 72 71 72 75 77 78 80 84 87 88 89 88 87 87 87 87 86 88 90 89 88 88 87 88 87 86 86 85 84 84 83 83 83
37 45 46 42 36 42 54 59 61 61 62 60 59 57 55 56 57 57 57 59 59 61 63 66 69 71 73 75 74 75 75 73 72 73 76 77 78 81 84 86 88 86 86 86 86 85 88 90 89 89 88 89 88 87 86 85 86 84 84 84 83 83 83
42 39 41 32 39 52 55 59 60 62 62 60 61 56 54 54 55 54 53 56 59 60 61 65 70 73 76 77 76 74 75 74 73 73 75 78 79 80 85 85 85 84 87 86 87 86 89 90 90 89 89 90 89 87 87 86 85 84 84 83 83 83 82
33 39 41 43 51 50 53 53 53 55 52 54 56 52 51 53 53 53 52 54 56 58 60 64 71 75 77 73 74 75 73 73 74 75 76 79 79 80 84 88 87 86 87 87 89 87 88 89 90 90 90 90 89 87 86 86 84 84 83 82 83 83 83
42 36 37 39 42 37 44 52 57 59 60 59 58 56 52 53 53 54 52 52 54 56 58 63 70 74 72 70 70 71 72 73 73 76 78 81 81 82 84 87 87 86 87 88 87 88 87 88 89 88 89 89 86 84 84 84 84 84 84 83 84 83 83
39 38 36 35 36 43 48 51 55 60 61 59 59 56 49 50 52 54 52 52 53 54 54 61 72 72 67 64 66 68 69 71 73 73 76 79 81 82 83 86 86 87 85 86 87 86 86 86 86 86 87 87 86 84 84 84 85 85 84 84 85 84 85
37 39 37 37 44 40 48 53 57 60 61 59 56 45 45 47 52 53 52 51 53 53 54 61 65 62 62 61 63 67 67 70 73 72 73 75 78 80 83 85 87 85 84 84 85 85 86 85 86 86 87 87 86 84 84 87 86 85 85 85 86 86 87
37 37 40 45 46 51 52 53 57 59 60 55 45 43 45 51 51 52 51 52 52 53 52 57 56 58 60 61 64 66 68 70 71 73 75 76 78 79 80 81 82 84 84 85 85 86 85 84 86 87 87 86 84 84 84 84 84 86 87 86 86 86 86
34 39 39 40 46 50 52 55 56 55 50 43 43 48 54 51 50 51 52 51 52 52 53 54 55 59 63 63 64 65 66 67 69 71 74 76 78 80 80 79 80 83 86 84 85 86 85 86 87 87 86 84 83 83 83 83 85 88 87 86 86 86 85
40 41 39 38 34 47 53 53 55 52 44 43 49 53 54 54 50 51 52 52 52 52 52 56 56 58 59 61 61 62 64 66 67 69 70 71 73 75 77 78 80 81 81 81 84 86 88 89 88 87 87 83 83 83 82 83 87 88 87 87 86 86 85
36 38 37 35 41 46 51 50 41 45 45 49 51 52 50 52 51 50 50 52 53 53 52 54 55 56 57 59 60 61 62 64 66 68 69 70 71 73 77 79 79 80 78 80 82 84 87 87 87 87 86 83 83 82 82 85 87 87 86 86 86 85 85
39 38 41 45 47 48 50 50 48 48 50 52 53 53 51 50 50 52 51 51 53 55 54 55 55 54 58 58 59 60 60 62 63 65 66 67 68 70 72 75 78 80 79 78 80 80 82 83 85 85 86 84 82 82 83 84 85 85 85 85 85 84 85
46 48 48 51 49 49 49 51 52 50 50 53 54 53 51 52 51 51 50 52 54 56 56 54 55 56 58 59 58 60 62 62 63 64 66 67 69 70 71 73 74 77 80 79 78 78 79 81 82 83 85 85 82 81 82 83 85 85 85 84 84 84 85
39 36 47 46 46 50 51 49 51 52 51 51 53 53 53 52 52 53 54 53 54 56 56 57 55 57 59 59 59 60 62 63 63 64 64 65 66 67 68 71 73 74 76 77 76 76 76 78 81 83 82 83 82 81 82 84 84 84 84 83 83 84 84
39 39 45 46 49 51 52 50 49 49 50 51 52 53 53 53 54 55 55 55 55 57 56 57 56 56 59 58 58 59 61 61 62 63 63 64 64 66 68 70 73 74 74 74 75 75 75 77 78 79 79 80 81 83 84 84 83 82 81 82 83 83 84
41 46 47 47 48 51 50 52 52 51 51 51 52 53 53 54 54 55 55 57 55 57 57 59 58 57 57 59 59 60 61 61 61 62 63 64 63 64 65 68 72 73 74 74 74 75 75 77 77 77 78 79 80 81 83 83 83 82 81 81 82 82 83
36 38 41 45 38 39 47 50 51 51 52 52 52 53 52 53 52 53 52 54 56 57 59 61 60 57 56 59 59 60 61 60 61 62 63 63 63 64 65 68 70 73 74 75 75 75 75 76 77 77 77 78 79 81 82 83 84 82 81 81 81 81 82
34 42 45 46 45 44 47 49 51 52 52 53 51 50 50 51 53 54 52 52 53 55 58 62 60 58 57 59 59 59 60 60 62 62 62 62 62 63 65 65 67 70 72 74 74 74 75 76 77 77 76 77 78 79 80 81 82 83 83 82 81 81 81
44 46 45 46 44 42 45 50 51 52 54 53 52 52 52 51 51 52 53 53 52 54 57 60 60 59 59 60 60 59 60 61 62 62 62 64 64 64 65 65 66 68 69 71 72 73 74 75 75 76 76 76 76 78 79 80 81 82 83 83 82 82 83
40 45 46 47 47 48 50 50 52 54 55 55 52 52 51 51 51 53 52 53 55 55 55 57 61 61 59 60 60 59 59 62 64 63 62 65 66 64 64 65 65 66 68 70 72 73 74 74 75 75 75 75 76 77 78 79 80 81 81 82 82 81 82

ECMWFFLT2_sfc_temp_072.txt.gz
Temp
79 79 81 81 83 64 75 76 67 72 83 78 69 69 73 72 67 63 76 71 76 84 86 88 88 90 91 93 95 96 95 96 95 95 97 98 98 97 96 95 94 92 93 92 92 91 92 92 91 91 89 89 89 88 88 86 86 87 86 86 87 87 87
78 83 83 83 83 83 80 68 74 83 86 82 71 61 65 62 58 62 72 68 70 70 65 85 86 86 89 90 92 96 95 96 95 96 97 96 97 98 97 95 94 94 94 92 93 94 94 93 93 91 89 91 90 90 89 87 87 86 87 87 88 88 87
76 78 79 77 82 85 77 78 88 72 63 61 69 66 55 57 55 60 67 72 72 74 72 82 82 84 86 89 91 93 94 95 95 97 97 97 99 99 97 96 95 95 94 93 92 94 95 94 92 92 92 92 92 91 91 91 88 89 89 90 89 88 88
75 75 74 62 70 80 83 83 79 84 77 69 64 65 67 66 59 59 62 69 65 77 79 84 83 86 88 90 91 92 95 96 96 97 98 97 97 97 98 97 97 96 96 96 96 95 95 95 94 94 94 94 94 93 91 91 92 90 89 89 88 87 89
72 62 70 67 72 69 71 72 70 75 76 82 77 75 68 64 60 61 61 60 68 78 87 87 86 87 89 91 90 91 94 96 99 98 98 98 98 98 98 98 98 97 97 98 97 97 97 97 96 96 96 95 95 95 93 93 90 91 91 91 90 88 89
62 66 76 76 77 78 75 72 69 74 71 68 62 59 76 71 65 57 61 59 72 84 91 89 89 90 91 92 92 93 95 97 97 98 99 99 98 98 99 100 101 100 97 98 99 97 97 97 97 96 96 96 96 94 95 94 94 93 93 92 90 88 89
65 72 75 75 75 74 72 76 74 76 75 74 67 54 63 71 71 74 70 64 68 86 88 89 90 91 93 93 94 93 96 97 99 100 102 100 99 99 100 101 102 102 99 98 98 96 95 96 95 96 96 96 95 95 95 95 94 94 95 94 93 89 89
65 70 75 76 75 72 71 74 76 76 72 74 72 70 72 67 70 65 66 59 69 85 87 88 90 90 92 93 95 93 96 98 99 100 100 99 98 98 101 101 103 101 100 97 95 94 93 94 93 94 95 95 95 96 96 96 95 95 95 95 94 91 90
55 61 68 70 74 73 71 71 74 75 74 72 71 70 70 62 68 70 64 57 67 82 87 88 88 91 92 93 95 95 93 95 97 98 99 100 98 97 99 99 100 99 99 95 93 93 91 92 95 94 94 94 95 95 96 97 96 97 96 95 94 92 92
43 44 47 51 57 64 69 74 73 68 71 70 68 63 65 56 64 67 66 66 75 84 84 85 87 88 88 92 95 97 97 94 96 97 97 93 94 93 94 96 97 96 95 94 92 91 91 94 95 92 92 94 96 96 96 98 97 96 96 96 95 93 93
50 53 51 58 59 61 63 65 65 68 70 71 70 70 65 60 65 63 67 70 74 77 82 82 85 87 88 90 92 93 94 95 96 94 94 95 93 92 93 93 95 94 93 92 91 91 93 95 96 95 95 94 96 93 94 97 97 96 94 94 93 93 93
53 57 57 61 60 56 59 61 63 67 66 67 68 64 62 68 64 60 70 71 70 74 81 83 83 87 88 91 91 93 94 93 95 95 91 90 96 95 94 93 92 91 91 91 90 90 93 94 95 95 95 96 94 93 94 95 97 97 96 94 93 92 91
57 60 60 62 61 60 60 61 62 62 66 65 62 65 69 70 62 60 69 69 69 75 81 85 85 82 84 88 88 90 92 93 93 92 92 95 97 96 95 91 90 91 91 89 90 91 92 94 94 95 95 95 94 94 94 94 97 96 94 93 92 92 91
55 57 58 61 59 59 60 60 63 64 64 65 66 67 69 69 63 67 67 68 70 77 81 83 83 84 86 88 89 91 91 91 88 90 91 95 97 99 97 94 93 91 91 90 89 90 89 92 92 95 94 93 94 94 94 95 94 96 94 92 91 91 90
50 56 59 60 60 58 56 60 62 64 65 66 67 67 69 69 69 69 70 67 68 80 82 78 82 83 87 87 88 88 87 88 89 89 91 93 93 95 95 96 95 93 92 92 90 89 89 90 92 93 93 93 94 96 95 95 94 95 95 91 90 90 89
46 55 57 59 61 60 57 57 60 62 63 61 65 64 69 67 64 66 67 64 67 77 79 77 80 83 83 84 84 85 86 87 85 86 88 89 89 91 92 92 94 95 94 93 91 91 92 93 93 93 92 94 94 95 94 94 96 97 95 92 91 89 90
46 55 58 59 59 57 53 54 60 63 65 67 69 71 68 67 69 65 62 66 73 69 71 73 76 80 82 84 85 82 83 82 84 84 85 86 88 89 88 89 89 93 97 97 93 94 94 94 94 95 95 95 92 93 92 93 95 95 93 93 90 89 90
45 52 56 58 53 43 46 65 70 68 65 67 65 65 63 65 68 68 69 68 69 70 70 69 70 73 75 77 81 85 82 81 81 83 84 85 86 88 89 90 90 91 92 95 97 95 93 95 98 97 95 95 94 95 94 93 93 92 91 90 89 89 89
43 50 51 43 38 44 63 67 70 73 74 73 69 62 62 64 66 66 66 69 68 66 68 69 71 72 76 80 82 86 87 83 81 80 82 83 84 85 86 87 90 89 90 92 95 95 97 98 97 96 96 97 95 95 93 92 92 90 90 89 89 89 88
48 45 44 31 39 59 64 65 67 68 73 74 64 58 60 64 66 65 64 65 66 67 68 71 73 73 77 80 82 85 87 84 80 80 81 82 84 85 86 86 86 86 90 93 96 96 97 98 99 98 96 98 97 94 94 92 91 90 89 88 88 88 88
38 43 44 44 54 56 58 60 61 66 60 59 57 50 51 59 63 63 60 61 63 64 67 69 72 76 78 77 79 88 82 80 81 81 80 82 83 85 86 89 89 89 91 93 96 96 96 98 99 97 98 98 96 95 93 92 90 90 89 87 88 88 88
48 42 40 42 44 39 51 59 64 67 67 64 64 58 49 59 62 63 60 59 59 60 62 65 69 74 73 71 77 78 78 80 79 80 81 83 85 87 88 88 90 90 92 94 96 97 96 96 97 96 97 96 93 91 90 90 90 89 89 88 89 88 88
46 42 36 35 34 45 50 56 62 66 67 68 67 61 52 54 61 61 61 59 58 56 56 59 68 72 68 72 75 72 74 74 76 75 78 83 86 88 88 89 90 93 94 93 95 94 94 94 95 94 94 94 93 90 89 90 90 90 89 89 90 89 89
45 44 39 37 45 42 52 54 60 68 68 64 63 47 46 50 59 59 59 58 56 54 55 60 62 60 63 61 62 68 69 71 72 74 76 79 83 86 90 91 90 91 92 91 92 93 93 93 95 93 94 94 91 89 89 92 91 90 90 90 91 91 92
43 41 42 47 49 56 55 58 62 64 66 63 49 42 47 55 58 58 58 58 56 54 56 59 55 57 57 59 62 64 65 67 70 75 78 79 82 83 88 88 85 90 92 91 92 93 93 92 94 94 94 93 90 89 89 89 89 91 92 91 91 91 91
42 43 39 39 48 52 53 60 60 59 55 47 46 49 57 58 56 58 59 57 57 56 56 57 58 59 62 64 65 65 64 64 66 72 75 77 80 84 85 85 85 89 92 90 91 93 92 94 94 94 92 90 88 88 88 89 90 94 92 91 90 90 89
47 45 39 36 31 47 54 55 59 57 49 45 48 53 57 60 57 57 58 58 56 56 55 59 59 60 61 62 64 66 65 64 65 69 72 72 74 77 80 85 87 89 89 89 91 93 95 95 95 94 93 88 88 87 87 88 92 93 92 91 90 90 89
40 39 34 35 45 47 53 53 46 50 49 51 52 54 56 60 57 55 55 56 57 56 56 57 59 59 61 62 62 62 61 63 66 68 70 71 72 75 81 85 86 88 86 88 92 94 95 94 93 93 91 88 87 87 87 90 92 92 91 91 90 89 88
44 42 42 47 52 53 55 54 53 53 54 55 53 55 56 56 56 58 56 56 58 58 57 57 58 59 61 61 61 58 59 62 64 65 67 69 69 71 75 81 84 87 88 86 89 91 93 92 92 91 91 88 87 86 89 90 90 91 90 90 89 88 89
47 49 48 50 52 53 54 57 57 55 54 55 55 53 53 56 58 59 58 58 59 58 60 58 57 58 60 61 60 59 61 62 64 65 67 68 69 70 72 75 80 84 86 87 86 86 88 90 90 90 91 90 86 87 90 90 91 91 90 88 88 88 89
39 36 48 48 50 52 54 55 57 57 56 55 55 54 53 55 58 60 62 62 61 62 63 61 59 60 61 59 59 59 61 61 63 63 64 65 66 67 68 72 75 78 82 83 83 84 84 87 90 92 91 91 90 90 89 91 92 90 89 88 87 88 88
36 38 45 49 52 53 54 55 54 54 56 57 56 56 56 57 58 60 62 62 62 63 60 62 62 62 64 61 59 58 60 61 63 62 63 64 65 67 69 71 74 76 76 77 80 82 83 85 86 87 88 89 89 90 91 93 92 90 88 87 88 88 89
41 46 48 49 51 54 54 55 57 57 56 55 56 56 57 57 57 59 62 64 63 64 62 62 63 62 61 62 62 61 60 61 62 62 62 64 65 66 67 69 72 73 74 76 77 79 80 83 85 86 87 88 89 89 90 91 91 88 87 86 88 89 90
37 38 40 45 39 41 48 52 56 56 57 56 56 57 55 57 57 58 59 61 63 63 63 64 64 62 61 62 63 62 63 62 62 62 63 64 65 66 68 69 70 71 74 75 76 77 78 80 81 82 83 84 87 89 89 89 89 87 87 87 87 87 89
35 42 45 46 46 45 48 51 54 55 56 55 54 53 53 55 57 58 58 60 61 60 62 65 64 62 60 62 63 63 64 65 66 64 65 65 65 65 66 67 67 69 71 73 75 76 77 78 79 80 81 82 83 84 85 87 88 88 87 86 87 88 88
44 46 45 46 45 43 48 51 53 54 54 54 53 55 56 56 56 58 58 59 58 58 61 64 65 64 62 63 64 63 64 66 67 67 67 67 66 65 66 67 67 67 68 70 72 73 76 77 78 78 79 80 82 84 85 86 86 87 87 87 86 88 89
40 46 47 48 48 49 52 53 55 56 56 55 54 55 57 57 58 59 57 58 60 60 59 61 64 65 63 64 64 63 63 66 67 68 67 67 67 66 66 67 66 67 68 70 71 73 75 76 77 77 77 77 79 82 84 86 86 86 87 88 88 88 89